Regional Weather Roundup
Issued by NWS Newport/Morehead, NC

Current Version | Previous Version | Graphics & Text | Print | Product List | Glossary Off
Versions: 1 2 3 4 5 6 7 8 9 10 11 12 13 14 15 16 17 18 19 20 21 22 23 24 25 26 27 28 29 30 31 32 33 34 35 36 37 38 39 40 41 42 43 44 45 46 47 48 49 50

000
ASUS42 KMHX 281025
RWRMHX
WEATHER ROUNDUP FOR EASTERN NORTH CAROLINA
NATIONAL WEATHER SERVICE NEWPORT/MOREHEAD CITY NC
600 AM EDT WED SEP 28 2016

NOTE: "FAIR" INDICATES FEW OR NO CLOUDS BELOW 12,000 FEET
WITH NO SIGNIFICANT WEATHER AND/OR OBSTRUCTIONS TO VISIBILITY

NCZ015>017-031-032-045>047-102-103-281100-
NORTH COAST

CITY           SKY/WX    TMP DP  RH WIND       PRES   REMARKS
EDENTON        CLOUDY    67  67 100 CALM      29.94R
ELIZABETH CITY CLEAR     66  66 100 CALM      29.93S FOG
KITTY HAWK     SUNNY     71  71 100 CALM      29.91S
MANTEO         NOT AVBL

$$

NCZ045>047-081-094-103-104-281100-
CENTRAL COAST

CITY           SKY/WX    TMP DP  RH WIND       PRES   REMARKS
FRISCO         CLEAR     74  71  91 NW5       29.91S

$$

NCZ095-097-098-100-101-281100-
SOUTHERN COAST

CITY           SKY/WX    TMP DP  RH WIND       PRES   REMARKS
BEAUFORT       CLEAR     70  69  97 CALM      29.93R
CEDAR ISLAND   NOT AVBL
JACKSONVILLE   CLEAR     68  66  93 CALM      29.93R
PINEY ISLAND   SUNNY    N/A N/A N/A NW3       29.92R
WILMINGTON     CLEAR     67  66  97 NE5       29.92S


$$

NCZ011>013-027>030-043-044-078>080-089-090>093-098-281100-
COASTAL PLAIN

CITY           SKY/WX    TMP DP  RH WIND       PRES   REMARKS
AHOSKIE        MOCLDY    67  67  98 CALM      29.93S
CLINTON        MOCLDY    69  69 100 CALM      29.93S FOG
ELIZABETHTOWN  CLEAR     69  69 100 SE5       29.92S
GOLDSBORO      MOCLDY    70  70 100 SE2       29.91R
GREENVILLE     MOCLDY    70  70 100 CALM      29.95S
HAVELOCK       CLEAR     68  66  93 CALM      29.94R
KENANSVILLE    PTCLDY    66  66 100 S3        29.93S FOG
KINSTON        PTCLDY    69  69  99 CALM      29.94S
NEW BERN       CLEAR     68  67  96 CALM      29.94S
RICHLANDS      PTCLDY    67  67 100 CALM      29.94S
ROCKY MOUNT    MOCLDY    69  69 100 S3        29.92R
WASHINGTON     PTCLDY    65  65  99 CALM      29.93S
WHITEVILLE     CLEAR     67  66  96 CALM      29.92F

$$

AMZ130-135-150-152-154-156-158-170-250-252-270-ANZ085-086-088-633-658-670-281100-
MARINE OBSERVATIONS

STATION/POSITION TIME  TEMP    WIND        PRES    WAVE   SWELL
                       AIR SEA DIR/SP/G            HT/PER HT/PER
                 (UTC) (F)     (DEG/KT/KT) (MB)    (FT/S) (FT/S)
CHESAPEAKE LIGHT NOT AVBL
64 E VA BEACH    0950   74 74   10/ 10/ 12 1012.7    4/ 6   3/ 6
DUCK             1000   73 76  330/  8/  9 1012.8
2 E DUCK         0941      76                N/A     4/ 7   2/12
OREGON INLET     1000   72 76  340/  3/  4 1012.9
13E OREGON INLT  1000      76                N/A     4/ 7   5/12
HATTERAS CG      1000   75 77  320/  8/  9 1012.7
DIAMOND BUOY     0950   77 84  340/ 10/ 14 1012.3    5/ 7   5/ 7
CAPE LOOKOUT     1000   73     360/  3/  4 1013.2
BEAUFORT LAB     1000   72 76   10/  2/  4 1013.0
30 SE NEW RVR IN 1008   78 83   70/  2/  4 1013.4
30 SE NEW RVR IN 0955      83                N/A     3/ 7   2/13
27 SE WRIGHTSVLE 1008   79 81  100/  2/  4 1013.6
5 SE WRIGHTSVLE  0908   78 80  230/  4/  6 1014.1
225 S CAPE HAT   0950   81 83  200/  8/ 10 1013.3    5/11   5/11
41 SE CHARLESTON 0950   79 82  280/  2/  4 1013.1    3/11   3/11

$$



USA.gov is the U.S. government's official web portal to all federal, state and local government web resources and services.